Regional Weather Roundup
Issued by NWS Sterling, VA

Home | Current Version | Previous Version | Graphics & Text | Print | Product List | Glossary On
Versions: 1 2 3 4 5 6 7 8 9 10 11 12 13 14 15 16 17 18 19 20 21 22 23 24 25 26 27 28 29 30 31 32 33 34 35 36 37 38 39 40 41 42 43 44 45 46 47 48 49
000
ASUS41 KLWX 290910
RWRLWX

REGIONAL WEATHER ROUNDUP
NATIONAL WEATHER SERVICE BALTIMORE MD/WASHINGTON DC
500 AM EDT WED JUL 29 2015

Note: "FAIR" indicates few or no clouds below 12,000 feet
with no significant weather and/or obstructions to visibility.
 TC=TEMPERATURE CELSIUS

 * =Non NWS site. Station does not report precipitation (e.g. rain,
    snow, etc.), thunder, or fog.

DCZ001-MDZ009-015-VAZ040>042-051-053>054-291000-
WASHINGTON METRO

CITY           SKY/WX    TMP DP  RH WIND       PRES   REMARKS
WASHINGTON NAT PTCLDY    78  74  87 S5        29.98S
DULLES         PTCLDY    71  70  96 CALM      30.00R
ANDREWS AFB    CLEAR     73  72  98 S5        29.98R
FT BELVOIR     CLOUDY    72  72 100 CALM      29.98R FOG
QUANTICO       PTCLDY    74  70  87 NW6       29.98S
COLLEGE PARK*  CLEAR     72  72 100 CALM      29.98R
LEESBURG*      FOG       72  72 100 CALM      30.01R VSB 3/4
MANASSAS*      CLOUDY    72  72 100 CALM      29.99R
GAITHERSBURG*  PTCLDY    70  66  88 CALM      30.03R

$$

MDZ006>007-011-014-291000-
BALTIMORE METRO

CITY           SKY/WX    TMP DP  RH WIND       PRES   REMARKS
BWI AIRPORT    PTCLDY    72  70  93 CALM      29.97S
MD SCIENCE CTR   N/A     76  72  87 MISG      29.98R
MARTIN STATE   CLEAR     73  73 100 CALM      29.99R FOG
ANNAPOLIS      CLEAR     76  72  87 CALM      29.96F
FORT MEADE*    PTCLDY    66  64  94 CALM      30.00S

$$

MDZ012-015-019>023-291000-
MARYLAND EASTERN SHORE

CITY           SKY/WX    TMP DP  RH WIND       PRES   REMARKS
OCEAN CITY     CLEAR     69  68  96 CALM      29.98S
SALISBURY      CLEAR     69  69 100 CALM      29.98S
BAY BRIDGE AP*   N/A     77  73  88 CALM      29.97S
CAMBRIDGE*     PTCLDY    72  70  94 CALM      29.97S
EASTON*        CLEAR     74  74 100 CALM      30.01S

$$

MDZ017>025-291000-
SOUTHERN MARYLAND

CITY           SKY/WX    TMP DP  RH WIND       PRES   REMARKS
PATUXENT RIVER CLEAR     73  71  93 S3        29.97F
ST INIGOES     MOCLDY    75  72  90 S3        29.97S
LEONARDTOWN*   MOCLDY    72  70  94 CALM      29.99S

$$

MDZ003>005-291000-
NORTH CENTRAL MARYLAND

CITY           SKY/WX    TMP DP  RH WIND       PRES   REMARKS
FREDERICK*     CLOUDY    70  70 100 CALM      30.02R FOG
HAGERSTOWN APT CLEAR     71  68  90 NW3       30.00R FOG
WESTMINSTER*   CLEAR     72  70  94 CALM      30.01R

$$

MDZ501>502-291000-
WESTERN MARYLAND

CITY           SKY/WX    TMP DP  RH WIND       PRES   REMARKS
OAKLAND*       MOCLDY    64 N/A N/A SE6       30.10S
CUMBERLAND*    MOCLDY    70  70 100 CALM      30.05R

$$

VAZ025>031-291000-
SHENANDOAH VALLEY

CITY           SKY/WX    TMP DP  RH WIND       PRES   REMARKS
WINCHESTER*    CLEAR     70  70 100 CALM      30.01R FOG
FRONT ROYAL*   CLOUDY    68  68 100 CALM      30.00R VSB 1/2
LURAY*         FOG       70  70 100 CALM      30.02R VSB 3/4
NEW MARKET*    CLOUDY    69  69 100 CALM      30.01R VSB 1/4
STAUNTON*      CLOUDY    73  71  95 CALM      30.05R FOG
WAYNESBORO*    CLOUDY    70  70 100 CALM      30.04R

$$

WVZ021-048>050-054>055-291000-
EASTERN WEST VIRGINIA PANHANDLE

CITY           SKY/WX    TMP DP  RH WIND       PRES   REMARKS
MARTINSBURG    CLEAR     67  67 100 CALM      30.00R FOG
PETERSBURG*    CLOUDY   N/A N/A N/A CALM      30.03R FOG

$$

VAZ036>039-050-291000-
CENTRAL FOOTHILLS

CITY           SKY/WX    TMP DP  RH WIND       PRES   REMARKS
CHARLOTTESVILL FOG       72  71  97 N3        30.01R VSB 3/4
CULPEPER*      CLOUDY    71  71 100 CALM      30.01R FOG
ORANGE*        CLOUDY    73  73 100 CALM      30.01S FOG
GORDONSVILLE*  FOG       72  72 100 CALM      30.00R VSB 1
WARRENTON*     FOG       72  72 100 CALM      30.00R VSB 1/4

$$

VAZ055>057-291000-
NORTH AND CENTRAL PIEDMONT

CITY           SKY/WX    TMP DP  RH WIND       PRES   REMARKS
FREDERICKSBRG* FOG       18  18 100 CALM      29.98R VSB 1/4
STAFFORD*      FOG       69  68  97 CALM      30.02S VSB 1/4

$$

NCZ024-NYZ072-PAZ021-071-VAZ022-071-291000-
OTHER REGIONAL OBSERVATIONS

CITY           SKY/WX    TMP DP  RH WIND       PRES   REMARKS
NEW YORK CITY  CLEAR     80  66  62 W5        29.98R
PHILADELPHIA   PTCLDY    79  71  76 CALM      29.97S
PITTSBURGH     PTCLDY    70  65  84 CALM      29.99F
ROANOKE        CLOUDY    74  72  93 CALM      30.04R
RICHMOND       CLEAR     74  70  87 S3        29.99R
RALEIGH        MOCLDY    76  69  79 S5        30.00R

$$

ANZ530>537-291000-
MARINE OBSERVATIONS

STATION/POSITION TIME  TEMP    WIND        PRES
                       AIR SEA DIR/SP/G
                 (UTC) (F)     (DEG/KT/KT) (MB)
THOMAS PT LIGHT  NOT AVBL
BALT KEY BRIDGE  0800   76     220/  4/  5 1014.6F
COVE POINT       0800   78     230/  4/  4 1015.8F
LEWISETTA        0800   78 84  230/  5/  6 1014.7F
SOLOMONS ISLAND  0800      82                N/A

$$



USA.gov is the U.S. government's official web portal to all federal, state and local government web resources and services.